Milton, FL

7:09 AM CST on February 12, 2016 (GMT -0600)
Whiting Field Naval Air Station (South)

Weather History for KNDZ - November, 2011

Change the Weather History Date:

Tuesday, November 1, 2011

  Actual Average (KPNS) Record (KPNS)
Temperature  
Mean Temperature 58 °F 65 °F  
Max Temperature 73 °F 74 °F 85 °F (1950)
Min Temperature 43 °F 55 °F 30 °F (1993)
Degree Days  
Heating Degree Days 7 3  
Month to date heating degree days 3  
Since 1 July heating degree days 41  
Cooling Degree Days 0 3  
Month to date cooling degree days 3  
Year to date cooling degree days 2553  
Growing Degree Days 8 (Base 50)    
Moisture  
Dew Point 39 °F    
Average Humidity 55    
Maximum Humidity 86    
Minimum Humidity 26    
Precipitation  
Precipitation 0.00 in 0.17 in 4.90 in (1995)
Month to date precipitation 0.17  
Year to date precipitation 56.16  
Sea Level Pressure  
Sea Level Pressure 30.19 in    
Wind  
Wind Speed 6 mph (ENE)    
Max Wind Speed 13 mph    
Max Gust Speed 22 mph    
Visibility 10 miles    
Events      
T = Trace of Precipitation, MM = Missing Value Source: NWS Daily Summary

Daily Weather History Graph

Daily Weather History Graph

Search for Another Location

Airport or City:

Trip Planner

Search our weather history database for the weather conditions in past years. The results will help you decide how hot, cold, wet, or windy it might be!

Date:

Astronomy

Nov. 01, 2011 Rise Set
Actual Time 7:02 AM CDT 6:00 PM CDT
Civil Twilight 6:37 AM CDT 6:25 PM CDT
Nautical Twilight 6:09 AM CDT 6:53 PM CDT
Astronomical Twilight 5:41 AM CDT 7:21 PM CDT
Moon 12:44 PM CDT (11/1) 11:44 PM CDT (11/1)
Length of Visible Light 11h 47m
Length of Day
10h 57m
Waxing Crescent, 40% of the Moon is Illuminated
Nov 1
Waxing Crescent
Nov 2
First Quarter
Nov 10
Full
Nov 18
Last Quarter
Nov 25
New

Hourly Weather History & Observations

Time (CDT) Temp. Windchill Dew Point Humidity Pressure Visibility Wind Dir Wind Speed Gust Speed Precip Events Conditions
12:56 AM 43.0 °F 41.3 °F 35.1 °F 74% 30.16 in 10.0 mi NNW 3.5 mph - N/A   Clear
1:56 AM 48.0 °F - 35.1 °F 61% 30.16 in 10.0 mi NNE 4.6 mph - N/A   Clear
2:56 AM 45.0 °F 42.6 °F 35.1 °F 68% 30.16 in 10.0 mi NNE 4.6 mph - N/A   Clear
3:56 AM 48.9 °F - 35.1 °F 59% 30.16 in 10.0 mi NNE 6.9 mph - N/A   Clear
4:56 AM 48.0 °F - 35.1 °F 61% 30.17 in 10.0 mi NE 8.1 mph - N/A   Clear
5:56 AM 48.0 °F - 37.9 °F 68% 30.18 in 10.0 mi NE 8.1 mph - N/A   Clear
6:56 AM 46.9 °F - 39.9 °F 77% 30.20 in 10.0 mi NE 5.8 mph - N/A   Clear
7:56 AM 48.9 °F - 41.0 °F 74% 30.22 in 10.0 mi ENE 6.9 mph - N/A   Clear
8:56 AM 55.0 °F - 43.0 °F 64% 30.23 in 10.0 mi East 8.1 mph - N/A   Clear
9:56 AM 62.1 °F - 44.1 °F 52% 30.24 in 10.0 mi East 12.7 mph - N/A   Clear
10:56 AM 66.9 °F - 39.0 °F 36% 30.24 in 10.0 mi East 12.7 mph 21.9 mph N/A   Clear
11:56 AM 70.0 °F - 39.0 °F 32% 30.22 in 10.0 mi ENE 12.7 mph - N/A   Clear
12:56 PM 71.1 °F - 39.0 °F 31% 30.19 in 10.0 mi ESE 10.4 mph - N/A   Clear
1:56 PM 73.0 °F - 37.9 °F 28% 30.17 in 10.0 mi Variable 6.9 mph - N/A   Clear
2:56 PM 73.0 °F - 36.0 °F 26% 30.16 in 10.0 mi Variable 3.5 mph - N/A   Clear
3:56 PM 73.9 °F - 37.0 °F 26% 30.17 in 10.0 mi NNE 6.9 mph - N/A   Clear
4:56 PM 72.0 °F - 36.0 °F 27% 30.17 in 10.0 mi ENE 6.9 mph - N/A   Clear
5:56 PM 66.0 °F - 44.1 °F 45% 30.17 in 10.0 mi SSW 3.5 mph - N/A   Clear
6:56 PM 62.1 °F - 44.1 °F 52% 30.18 in 10.0 mi Calm Calm - N/A   Clear
7:56 PM 54.0 °F - 44.1 °F 69% 30.19 in 10.0 mi Calm Calm - N/A   Clear
8:56 PM 50.0 °F - 44.1 °F 80% 30.20 in 10.0 mi Calm Calm - N/A   Clear
9:56 PM 46.9 °F - 43.0 °F 86% 30.21 in 10.0 mi Calm Calm - N/A   Clear
10:56 PM 53.1 °F - 39.9 °F 61% 30.21 in 10.0 mi ENE 5.8 mph - N/A   Clear
11:56 PM 51.1 °F - 37.0 °F 59% 30.20 in 10.0 mi East 4.6 mph - N/A   Clear